Location: Capelle
(50.3413°N, 1.9974°E)
Time: 23:12:47
(UTC+00:00)

Cosmos 1339 Rocket - Pass Details

Date: 12 January 2026
Orbit: 940 x 1006 km, 82.9° (Epoch: 9 February)

Event Time Altitude Azimuth Distance (km) Brightness Sun altitude
Rises 19:16:32 0° 188° (S) 3,663 7.6 -28.4°
Reaches altitude 10° 19:19:03 10° 188° (S) 2,710 6.9 -28.8°
Enters shadow 19:25:11 87° 222° (SW) 969 4.3 -29.8°
